Flag for USA Weather for the Past 2 Weeks in Kykotsmovi Village, Hopi, Arizona, USA

Now
51 °F

Mostly cloudy.


Feels Like: 48 °F
Forecast: 40 / 53 °F
Wind: 8 mph from West

Location: Winslow Municipal Airport

Current Time: May 1, 2016 at 2:54:44 PM

Latest Report: May 1, 2016 at 1:56 PM


Visibility: 10 mi

Pressure: 29.96 "Hg (24.33 "Hg at 1727m altitude)

Humidity: 71%

Dew Point: 42 °F

Location of Kykotsmovi Village, HopiLocation

Historic Weather in Kykotsmovi Village, Hopi — Graph

°F

Kykotsmovi Village, Hopi Temperature Yesterday

Maximum temperature yesterday: 63 °F (at 12:56 PM)
Minimum temperature yesterday: 45 °F (at 12:56 AM)
Average temperature yesterday: 51 °F

High & Low Weather Summary for the Past Weeks

 TemperatureHumidityPressure
High84 °F (Apr 22, 12:56 PM)93% (Apr 30, 9:56 PM)30.19 "Hg (Apr 30, 9:56 PM)
Low28 °F (Apr 18, 5:56 AM)7% (Apr 21, 5:56 PM)29.55 "Hg (Apr 25, 12:56 PM)
Average54 °F37%29.85 "Hg
* Reported Apr 16 1:56 PM — May 1 1:56 PM, Kykotsmovi Village, Hopi, Weather by CustomWeather, © 2016

Note: Actual official high and low records may vary slightly from our data, if they occured in-between our weather recording intervals... More about our weather records

Advertising

Kykotsmovi Village, Hopi Weather History for the Previous 24 Hours

Scroll right to see more
 ConditionsComfort  
Time TempWeatherWind HumidityBarometerVisibility
1:56 PM
Sun, May 1
51 °FMostly cloudy.8 mph71%29.96 "Hg10 mi
12:56 PM49 °FLight rain. Overcast.7 mph77%29.95 "Hg10 mi
11:56 AM49 °FLight rain. Overcast.15 mph74%29.93 "Hg10 mi
10:56 AM46 °FLight rain. Mostly cloudy.6 mph86%29.93 "Hg10 mi
9:56 AM46 °FLight rain. Mostly cloudy.No wind83%29.92 "Hg8 mi
8:56 AM44 °FLight rain. Overcast.6 mph85%29.91 "Hg10 mi
7:56 AM44 °FCloudy.7 mph85%29.89 "Hg10 mi
6:56 AM43 °FOvercast.5 mph89%29.86 "Hg10 mi
5:56 AM42 °FMostly cloudy.7 mph85%29.83 "Hg10 mi
5:03 AM42 °FMostly cloudy.8 mph85%29.87 "Hg10 mi
4:56 AM42 °FOvercast.6 mph85%29.79 "Hg10 mi
3:56 AM41 °FMostly cloudy.9 mph93%29.78 "Hg10 mi
2:56 AM41 °FLight rain. Overcast.13 mph89%29.74 "Hg10 mi
1:56 AM40 °FLight rain. Overcast.12 mph93%29.75 "Hg10 mi
1:04 AM42 °FRain. Fog.20 mph89%29.86 "Hg4 mi
12:56 AM43 °FHeavy rain. Fog.14 mph89%29.75 "Hg3 mi
11:56 PM
Sat, Apr 30
45 °FLight rain. Mostly cloudy.9 mph90%29.75 "Hg10 mi
10:56 PM45 °FOvercast.7 mph90%29.78 "Hg10 mi
9:56 PM45 °FLight rain. Mostly cloudy.9 mph93%29.77 "Hg10 mi
8:56 PM46 °FLight rain. Mostly cloudy.8 mph86%29.78 "Hg7 mi
7:56 PM46 °FOvercast.12 mph86%29.78 "Hg10 mi
6:56 PM45 °FLight rain. More clouds than sun.20 mph90%29.77 "Hg10 mi
5:56 PM47 °FLight rain. Partly sunny.23 mph83%29.73 "Hg10 mi
4:56 PM53 °FMostly cloudy.17 mph61%29.72 "Hg10 mi
3:56 PM55 °FMostly cloudy.9 mph55%29.69 "Hg10 mi
2:56 PM60 °FOvercast.10 mph36%29.66 "Hg10 mi
Weather by CustomWeather, © 2016

See weather overviewHow to use our weather pages